Flag for USA

Past Weather in Columbus Junction Gas Storage Area, Iowa, USA — Yesterday and Last 2 Weeks

Currently: 64 °F. Clear. (Weather station: Fair Field, USA). See more current weather

Past Weather in Columbus Junction Gas Storage Area — Graph

°F

Columbus Junction Gas Storage Area Temperature Yesterday

Maximum temperature yesterday: 82 °F (at 4:35 pm)
Minimum temperature yesterday: 68 °F (at 8:15 am)
Average temperature yesterday: 73 °F

High & Low Weather Summary for the Past Weeks

 TemperatureHumidityPressure
High93 °F (Jun 10, 5:15 pm)100% (Jun 6, 3:35 am)30.14 "Hg (Jun 6, 3:35 am)
Low57 °F (Jun 15, 5:55 am)22% (Jun 13, 5:15 pm)29.53 "Hg (Jun 20, 8:35 pm)
Average77 °F71%29.91 "Hg
* Reported Jun 6 1:15 am — Jun 21 1:55 am, Columbus Junction Gas Storage Area. Weather by CustomWeather, © 2021

Note: Actual official high and low records may vary slightly from our data, if they occured in-between our weather recording intervals... More about our weather records

Columbus Junction Gas Storage Area Weather History for the Previous 24 Hours

Scroll right to see more
 ConditionsComfort  
Time TempWeatherWind HumidityBarometerVisibility
1:55 am
Mon, Jun 21
64 °FClear.16 mph100%29.71 "Hg10 mi
1:35 am66 °FClear.15 mph100%29.70 "Hg10 mi
1:15 am66 °FClear.15 mph100%29.69 "Hg10 mi
12:55 am66 °FClear.15 mph100%29.67 "Hg10 mi
12:35 am68 °FClear.18 mph100%29.65 "Hg10 mi
12:15 am68 °FClear.20 mph100%29.65 "Hg10 mi
11:55 pm
Sun, Jun 20
70 °FClear.21 mph100%29.64 "Hg10 mi
11:35 pm72 °FClear.17 mph94%29.63 "Hg10 mi
11:15 pm72 °FClear.16 mph100%29.61 "Hg10 mi
10:55 pm72 °FPassing clouds.14 mph100%29.60 "Hg10 mi
10:35 pm72 °FMostly cloudy.13 mph100%29.58 "Hg10 mi
10:15 pm73 °FMostly cloudy.14 mph100%29.59 "Hg10 mi
9:55 pm73 °FPassing clouds.15 mph100%29.59 "Hg10 mi
9:35 pm75 °FPartly cloudy.16 mph100%29.58 "Hg10 mi
9:15 pm77 °FPartly cloudy.9 mph100%29.57 "Hg10 mi
8:55 pm77 °FPassing clouds.No wind100%29.55 "Hg10 mi
8:35 pm77 °FPartly sunny.3 mph100%29.53 "Hg9 mi
8:15 pm77 °FMostly cloudy.No wind100%29.54 "Hg10 mi
7:55 pm77 °FOvercast.No wind100%29.57 "Hg10 mi
7:35 pm79 °FScattered clouds.No wind100%29.56 "Hg10 mi
6:55 pm79 °FSunny.8 mph100%29.55 "Hg10 mi
6:35 pm79 °FScattered clouds.8 mph100%29.56 "Hg10 mi
6:15 pm81 °FScattered clouds.10 mph100%29.56 "Hg10 mi
5:55 pm82 °FBroken clouds.14 mph89%29.56 "Hg10 mi
5:35 pm81 °FMostly cloudy.10 mph100%29.57 "Hg10 mi
5:15 pm82 °FPartly sunny.16 mph94%29.58 "Hg10 mi
4:55 pm82 °FScattered clouds.16 mph94%29.58 "Hg10 mi
4:35 pm82 °FSunny.15 mph89%29.58 "Hg10 mi
4:15 pm81 °FSunny.18 mph94%29.58 "Hg10 mi
3:55 pm81 °FPassing clouds.14 mph94%29.59 "Hg10 mi
3:35 pm79 °FScattered clouds.14 mph100%29.59 "Hg10 mi
3:15 pm79 °FScattered clouds.15 mph94%29.60 "Hg10 mi
2:55 pm79 °FPassing clouds.23 mph94%29.60 "Hg10 mi
2:35 pm77 °FSunny.22 mph100%29.61 "Hg10 mi
2:15 pm75 °FSunny.16 mph100%29.61 "Hg10 mi
1:55 pm73 °FScattered clouds.22 mph100%29.63 "Hg10 mi
1:15 pm70 °FBroken clouds.18 mph100%29.66 "Hg9 mi
12:55 pm70 °FMostly cloudy.14 mph100%29.68 "Hg10 mi
12:35 pm68 °FMore clouds than sun.13 mph100%29.68 "Hg9 mi
12:15 pm70 °FFog.16 mph100%29.69 "Hg4 mi
11:55 am72 °FBroken clouds.12 mph100%29.70 "Hg10 mi
11:35 am72 °FBroken clouds.14 mph100%29.69 "Hg10 mi
11:15 am72 °FBroken clouds.15 mph100%29.69 "Hg10 mi
10:55 am72 °FScattered clouds.12 mph100%29.69 "Hg10 mi
10:35 am70 °FScattered clouds.12 mph100%29.68 "Hg10 mi
10:15 am70 °FPassing clouds.9 mph100%29.70 "Hg10 mi
9:55 am70 °FSunny.8 mph100%29.70 "Hg10 mi
9:15 am68 °FSunny.8 mph100%29.71 "Hg9 mi
8:55 am68 °FFog.3 mph100%29.74 "Hg6 mi
8:35 am68 °FFog.7 mph100%29.74 "Hg3 mi
8:15 am68 °FFog.21 mph100%29.77 "Hg4 mi
7:35 am70 °FFog.13 mph100%29.74 "Hg5 mi
7:15 am70 °FBroken clouds.16 mph100%29.75 "Hg7 mi
6:55 am70 °FFog.14 mph100%29.74 "Hg6 mi
6:35 am70 °FMore clouds than sun.15 mph100%29.75 "Hg10 mi
6:15 am70 °FBroken clouds.14 mph100%29.77 "Hg7 mi
5:55 am70 °FOvercast.9 mph100%29.78 "Hg10 mi
5:35 am70 °FMostly cloudy.7 mph100%29.76 "Hg10 mi
5:15 am70 °FMostly cloudy.6 mph100%29.75 "Hg10 mi
4:55 am70 °FMostly cloudy.5 mph100%29.73 "Hg10 mi
4:35 am70 °FOvercast.3 mph100%29.73 "Hg10 mi
4:15 am70 °FPassing clouds.5 mph100%29.69 "Hg10 mi
3:55 am72 °FPassing clouds.8 mph100%29.69 "Hg10 mi
3:15 am72 °FMostly cloudy.6 mph100%29.73 "Hg10 mi
Weather by CustomWeather, © 2021

See weather overview